Back to catalog

YAOGAN-36 03B

AliveMilitaryVLEO
NORAD 54374·PAYLOAD·🇨🇳 China

Launched Nov 27, 2022 from Xichang Satellite Launch Center

Loading…

Next Passes (next 24 hours)

TLE

FreshSource: Space-Track

Epoch: Sep 14, 2026, 05:04 UTC

1 54374U 22160C   26257.21121086  .00006092  00000-0  26225-3 0  9994
2 54374  34.9924 167.2563 0009441 245.2263 114.7469 15.21907780211295

Track YAOGAN-36 03B in real time with AllMySat

Download on the App Store